North Myrtle Beach, SC

1:50 AM EDT on August 27, 2016 (GMT -0400)
Grand Strand

Weather History for KCRE - October, 2013

Change the Weather History Date:

Thursday, October 17, 2013

  Actual Average Record
Temperature  
Mean Temperature 67 °F 65 °F  
Max Temperature 78 °F 75 °F 85 °F (2008)
Min Temperature 56 °F 55 °F 38 °F (1954)
Degree Days  
Heating Degree Days 0 3  
Month to date heating degree days 1 25  
Since 1 July heating degree days 1 29  
Cooling Degree Days 2 3  
Month to date cooling degree days 78 72  
Year to date cooling degree days 1806 1856  
Growing Degree Days 18 (Base 50)    
Moisture  
Dew Point 61 °F    
Average Humidity 79    
Maximum Humidity 100    
Minimum Humidity 58    
Precipitation  
Precipitation 0.00 in 0.14 in 3.92 in (1999)
Month to date precipitation 0.42 2.38  
Year to date precipitation 42.54 44.01  
Sea Level Pressure  
Sea Level Pressure 29.95 in    
Wind  
Wind Speed 6 mph (SSW)    
Max Wind Speed 15 mph    
Max Gust Speed 18 mph    
Visibility 6 miles    
Events      
T = Trace of Precipitation, MM = Missing Value Source: NWS Daily Summary

Daily Weather History Graph

Daily Weather History Graph

Search for Another Location

Airport or City:

Trip Planner

Search our weather history database for the weather conditions in past years. The results will help you decide how hot, cold, wet, or windy it might be!

Date:

Astronomy

Oct. 17, 2013 Rise Set
Actual Time 7:21 AM EDT 6:38 PM EDT
Civil Twilight 6:56 AM EDT 7:03 PM EDT
Nautical Twilight 6:27 AM EDT 7:32 PM EDT
Astronomical Twilight 5:58 AM EDT 8:01 PM EDT
Moon 5:49 PM EDT (10/17) 5:54 AM EDT (10/17)
Length of Visible Light 12h 07m
Length of Day
11h 16m
Waxing Gibbous, 98% of the Moon is Illuminated
Oct 17
Waxing Gibbous
Oct 18
Full
Oct 26
Last Quarter
Nov 3
New
Nov 10
First Quarter

Hourly Weather History & Observations

Time (EDT) Temp. Dew Point Humidity Pressure Visibility Wind Dir Wind Speed Gust Speed Precip Events Conditions
12:14 AM 60.8 °F 59.0 °F 94% 29.98 in 1.8 mi Calm Calm - N/A   Clear
12:25 AM 60.8 °F 59.0 °F 94% 29.98 in 3.0 mi Calm Calm - N/A   Clear
12:32 AM 57.2 °F 57.2 °F 100% 29.98 in 2.5 mi Calm Calm - N/A   Clear
12:49 AM 59.0 °F 59.0 °F 100% 29.97 in 1.2 mi Calm Calm - N/A   Clear
12:53 AM 59.0 °F 59.0 °F 100% 29.98 in 1.8 mi Calm Calm - N/A   Clear
12:58 AM 60.8 °F 59.0 °F 94% 29.97 in 3.0 mi Calm Calm - N/A   Clear
1:53 AM 57.9 °F 57.9 °F 100% 29.98 in 1.5 mi Calm Calm - N/A   Clear
2:18 AM 57.2 °F 57.2 °F 100% 29.97 in 3.0 mi Calm Calm - N/A   Clear
2:37 AM 57.2 °F 57.2 °F 100% 29.97 in 1.8 mi Calm Calm - N/A   Clear
2:53 AM 57.9 °F 57.0 °F 97% 29.96 in 0.8 mi Calm Calm - N/A   Clear
3:01 AM 57.2 °F 57.2 °F 100% 29.96 in 1.5 mi Calm Calm - N/A   Clear
3:08 AM 57.2 °F 57.2 °F 100% 29.95 in 2.5 mi Calm Calm - N/A   Clear
3:16 AM 57.2 °F 57.2 °F 100% 29.95 in 0.8 mi Calm Calm - N/A   Clear
3:40 AM 57.2 °F 57.2 °F 100% 29.95 in 1.0 mi Calm Calm - N/A   Clear
3:47 AM 57.2 °F 57.2 °F 100% 29.95 in 3.0 mi Calm Calm - N/A   Clear
3:53 AM 57.9 °F 57.9 °F 100% 29.95 in 8.0 mi Calm Calm - N/A   Clear
4:53 AM 59.0 °F 57.9 °F 96% 29.95 in 10.0 mi Calm Calm - N/A   Clear
5:53 AM 61.0 °F 60.1 °F 97% 29.96 in 10.0 mi Calm Calm - N/A   Clear
6:53 AM 60.1 °F 59.0 °F 96% 29.97 in 7.0 mi Calm Calm - N/A   Clear
7:53 AM 62.1 °F 61.0 °F 96% 29.98 in 7.0 mi Calm Calm - N/A   Clear
8:53 AM 64.9 °F 62.1 °F 90% 29.99 in 10.0 mi West 3.5 mph - N/A   Clear
9:53 AM 70.0 °F 63.0 °F 78% 29.99 in 10.0 mi WSW 3.5 mph - N/A   Clear
10:53 AM 73.9 °F 64.0 °F 71% 29.99 in 10.0 mi SSW 6.9 mph - N/A   Clear
11:53 AM 75.0 °F 64.0 °F 69% 29.98 in 10.0 mi South 9.2 mph - N/A   Clear
12:53 PM 78.1 °F 62.1 °F 58% 29.96 in 10.0 mi SSW 9.2 mph - N/A   Clear
1:53 PM 77.0 °F 62.1 °F 60% 29.94 in 10.0 mi SSW 11.5 mph - N/A   Clear
2:53 PM 75.9 °F 64.0 °F 67% 29.92 in 10.0 mi South 11.5 mph - N/A   Clear
3:53 PM 75.9 °F 64.9 °F 69% 29.91 in 10.0 mi South 10.4 mph - N/A   Partly Cloudy
4:53 PM 75.0 °F 64.9 °F 71% 29.90 in 10.0 mi SSW 11.5 mph - N/A   Clear
5:53 PM 73.0 °F 66.9 °F 81% 29.90 in 10.0 mi SSW 11.5 mph - N/A   Clear
6:53 PM 73.0 °F 66.0 °F 79% 29.91 in 10.0 mi SSW 9.2 mph - N/A   Scattered Clouds
7:53 PM 72.0 °F 66.0 °F 81% 29.91 in 10.0 mi SSW 10.4 mph - N/A   Clear
8:53 PM 72.0 °F 66.0 °F 81% 29.92 in 10.0 mi SSW 10.4 mph - N/A   Clear
9:53 PM 72.0 °F 66.9 °F 84% 29.92 in 10.0 mi SSW 10.4 mph - N/A   Clear
10:53 PM 72.0 °F 66.9 °F 84% 29.93 in 10.0 mi SW 10.4 mph - N/A   Scattered Clouds
11:53 PM 71.1 °F 68.0 °F 90% 29.92 in 10.0 mi SW 8.1 mph - N/A   Clear